Sexton Summit, OR

2:26 AM PST on February 25, 2018 (GMT -0800)
Sexton Summit

Weather History for KSXT - June, 2013

Change the Weather History Date:

Tuesday, June 18, 2013

  Actual Average Record
Temperature  
Mean Temperature 48 °F -  
Max Temperature 57 °F 66 °F 79 °F (2004)
Min Temperature 41 °F 44 °F 39 °F (2012)
Degree Days  
Heating Degree Days 17    
Moisture  
Dew Point 41 °F    
Average Humidity 85    
Maximum Humidity 100    
Minimum Humidity 57    
Precipitation  
Precipitation 0.02 in - - ()
Sea Level Pressure  
Sea Level Pressure 30.01 in    
Wind  
Wind Speed 3 mph (SW)    
Max Wind Speed 9 mph    
Max Gust Speed -    
Visibility 9 miles    
Events Rain    
Averages and records for this station are not official NWS values.
T = Trace of Precipitation, MM = Missing Value Source: NWS Daily Summary

Daily Weather History Graph

Daily Weather History Graph

Search for Another Location

Airport or City:

Trip Planner

Search our weather history database for the weather conditions in past years. The results will help you decide how hot, cold, wet, or windy it might be!

Date:

Astronomy

Jun. 18, 2013 Rise Set
Actual Time 5:35 AM PDT 8:54 PM PDT
Civil Twilight 5:00 AM PDT 9:29 PM PDT
Nautical Twilight 4:14 AM PDT 10:14 PM PDT
Astronomical Twilight 3:19 AM PDT 11:10 PM PDT
Moon 3:40 PM PDT (6/18) 1:52 AM PDT (6/18)
Length of Visible Light 16h 28m
Length of Day
15h 18m
Waxing Gibbous, 72% of the Moon is Illuminated
Jun 18
Waxing Gibbous
Jun 23
Full
Jun 29
Last Quarter
Jul 8
New
Jul 15
First Quarter

Hourly Weather History & Observations

Time (PDT) Temp. Windchill Dew Point Humidity Pressure Visibility Wind Dir Wind Speed Gust Speed Precip Events Conditions
12:14 AM 46.4 °F - 42.8 °F 87% 30.06 in 10.0 mi Calm Calm - N/A   Overcast
12:27 AM 46.4 °F - 42.8 °F 87% 30.06 in 10.0 mi Calm Calm - N/A   Overcast
12:56 AM 46.0 °F - 43.0 °F 89% 29.97 in 10.0 mi Calm Calm - N/A   Overcast
1:17 AM 46.4 °F 45.2 °F 42.8 °F 87% 30.05 in 10.0 mi WSW 3.5 mph - N/A   Overcast
1:40 AM 44.6 °F 43.1 °F 42.8 °F 93% 30.05 in 10.0 mi SW 3.5 mph - N/A   Overcast
1:56 AM 45.0 °F 43.5 °F 43.0 °F 93% 29.96 in 10.0 mi South 3.5 mph - N/A   Overcast
2:08 AM 44.6 °F 43.1 °F 44.6 °F 100% 30.04 in 3.0 mi SSW 3.5 mph - N/A   Overcast
2:16 AM 44.6 °F 43.1 °F 44.6 °F 100% 30.04 in 2.0 mi South 3.5 mph - N/A   Overcast
2:23 AM 44.6 °F 42.2 °F 44.6 °F 100% 30.04 in 1.8 mi SW 4.6 mph - N/A   Overcast
2:30 AM 44.6 °F - 44.6 °F 100% 30.04 in 0.8 mi Calm Calm - N/A   Mist
2:56 AM 44.1 °F 42.5 °F 43.0 °F 96% 29.97 in 1.5 mi Variable 3.5 mph - N/A   Overcast
2:59 AM 44.6 °F - 42.8 °F 93% 30.04 in 3.0 mi Calm Calm - N/A   Overcast
3:20 AM 44.6 °F 43.1 °F 42.8 °F 93% 30.04 in 10.0 mi Variable 3.5 mph - N/A   Overcast
3:33 AM 44.6 °F 43.1 °F 42.8 °F 93% 30.03 in 10.0 mi Variable 3.5 mph - N/A   Overcast
3:56 AM 43.0 °F 41.3 °F 41.0 °F 93% 29.98 in 10.0 mi SW 3.5 mph - N/A   Overcast
4:12 AM 42.8 °F 40.1 °F 41.0 °F 93% 30.03 in 10.0 mi Variable 4.6 mph - N/A   Overcast
4:24 AM 42.8 °F 40.1 °F 39.2 °F 87% 30.02 in 10.0 mi Variable 4.6 mph - N/A   Overcast
4:56 AM 42.1 °F 38.4 °F 39.9 °F 92% 29.97 in 10.0 mi SSW 5.8 mph - N/A   Mostly Cloudy
5:06 AM 41.0 °F 35.8 °F 41.0 °F 100% 30.02 in 2.5 mi SW 8.1 mph - N/A   Overcast
5:25 AM 41.0 °F 35.2 °F 39.2 °F 93% 30.02 in 8.0 mi SW 9.2 mph - N/A   Scattered Clouds
5:56 AM 41.0 °F 35.2 °F 39.0 °F 93% 29.97 in 10.0 mi SW 9.2 mph - N/A   Clear
6:27 AM 41.0 °F 35.8 °F 39.2 °F 93% 30.02 in 10.0 mi SW 8.1 mph - N/A   Scattered Clouds
6:56 AM 41.0 °F 39.0 °F 39.0 °F 93% 29.99 in 10.0 mi SSW 3.5 mph - N/A   Clear
7:04 AM 41.0 °F - 39.2 °F 93% 30.02 in 10.0 mi Calm Calm - N/A   Partly Cloudy
7:56 AM 43.0 °F - 37.9 °F 82% 29.99 in 10.0 mi Calm Calm - N/A   Clear
8:56 AM 46.9 °F - 35.1 °F 63% 29.98 in 10.0 mi SW 3.5 mph - N/A   Clear
9:56 AM 48.9 °F - 37.0 °F 64% 29.98 in 10.0 mi Variable 3.5 mph - N/A   Clear
10:56 AM 51.1 °F - 37.9 °F 61% 29.97 in 10.0 mi Variable 3.5 mph - N/A   Overcast
11:31 AM 50.0 °F - 39.2 °F 66% 30.01 in 10.0 mi Calm Calm - N/A   Overcast
11:40 AM 51.8 °F - 39.2 °F 62% 30.01 in 10.0 mi Variable 3.5 mph - N/A   Overcast
11:56 AM 53.1 °F - 39.0 °F 59% 29.97 in 10.0 mi Variable 3.5 mph - N/A   Overcast
12:38 PM 48.2 °F - 41.0 °F 76% 30.02 in 6.0 mi Variable 3.5 mph - 0.00 in Rain Light Rain
12:56 PM 50.0 °F - 43.0 °F 77% 29.99 in 10.0 mi South 3.5 mph - 0.00 in Rain Light Rain
1:56 PM 53.1 °F - 39.9 °F 61% 29.98 in 10.0 mi Variable 4.6 mph - 0.00 in   Mostly Cloudy
2:13 PM 48.2 °F - 39.2 °F 71% 30.02 in 10.0 mi SSW 8.1 mph - N/A   Overcast
2:20 PM 48.2 °F - 42.8 °F 82% 30.02 in 10.0 mi SW 8.1 mph - N/A   Overcast
2:56 PM 48.9 °F - 43.0 °F 80% 29.99 in 10.0 mi Calm Calm - 0.00 in   Overcast
3:11 PM 48.2 °F - 42.8 °F 82% 30.02 in 10.0 mi West 3.5 mph - N/A   Overcast
3:56 PM 55.0 °F - 39.9 °F 57% 29.97 in 10.0 mi Calm Calm - N/A   Mostly Cloudy
4:42 PM 51.8 °F - 42.8 °F 71% 30.00 in 10.0 mi Variable 3.5 mph - N/A   Overcast
4:56 PM 50.0 °F - 42.1 °F 74% 29.99 in 10.0 mi Calm Calm - N/A   Overcast
5:23 PM 51.8 °F - 39.2 °F 62% 30.01 in 10.0 mi Variable 4.6 mph - N/A   Overcast
5:56 PM 48.0 °F - 41.0 °F 77% 30.00 in 10.0 mi Calm Calm - N/A   Mostly Cloudy
6:15 PM 48.2 °F - 42.8 °F 82% 30.01 in 10.0 mi Variable 3.5 mph - N/A   Overcast
6:56 PM 46.0 °F - 41.0 °F 83% 30.00 in 10.0 mi Calm Calm - N/A   Overcast
7:39 PM 44.6 °F - 39.2 °F 81% 30.00 in 10.0 mi Calm Calm - N/A   Overcast
7:56 PM 45.0 °F - 39.9 °F 82% 30.00 in 10.0 mi Calm Calm - N/A   Overcast
8:30 PM 44.6 °F - 39.2 °F 81% 30.01 in 10.0 mi Calm Calm - N/A   Overcast
8:54 PM 42.8 °F - 39.2 °F 87% 30.01 in 10.0 mi Calm Calm - N/A   Overcast
8:56 PM 43.0 °F - 39.0 °F 86% 30.00 in 10.0 mi Calm Calm - N/A   Overcast
9:06 PM 42.8 °F 41.1 °F 39.2 °F 87% 30.01 in 10.0 mi Variable 3.5 mph - N/A   Overcast
9:13 PM 42.8 °F 39.3 °F 39.2 °F 87% 30.01 in 10.0 mi Variable 5.8 mph - N/A   Overcast
9:25 PM 42.8 °F 40.1 °F 39.2 °F 87% 30.01 in 10.0 mi Variable 4.6 mph - N/A   Overcast
9:56 PM 43.0 °F - 39.9 °F 89% 30.00 in 10.0 mi Calm Calm - N/A   Overcast
10:07 PM 42.8 °F 39.3 °F 41.0 °F 93% 30.02 in 3.0 mi WSW 5.8 mph - 0.01 in Rain Light Rain
10:14 PM 42.8 °F 38.6 °F 39.2 °F 87% 30.02 in 6.0 mi SW 6.9 mph - 0.01 in Rain Light Rain
10:20 PM 41.0 °F 37.1 °F 39.2 °F 93% 30.02 in 8.0 mi SW 5.8 mph - 0.01 in   Overcast
10:28 PM 41.0 °F 37.1 °F 39.2 °F 93% 30.02 in 10.0 mi WSW 5.8 mph - 0.01 in   Overcast
10:56 PM 41.0 °F 38.0 °F 39.9 °F 96% 30.01 in 7.0 mi Variable 4.6 mph - 0.01 in   Overcast
11:04 PM 41.0 °F 39.0 °F 39.2 °F 93% 30.02 in 8.0 mi Variable 3.5 mph - N/A   Overcast
11:18 PM 41.0 °F 39.0 °F 39.2 °F 93% 30.02 in 10.0 mi Variable 3.5 mph - N/A   Overcast
11:56 PM 41.0 °F 39.0 °F 39.9 °F 96% 29.99 in 9.0 mi Variable 3.5 mph - 0.01 in Rain Light Rain